Regional Weather Roundup
Issued by NWS

Home | Current Version | Previous Version | Graphics & Text | Print | Product List | Glossary On
Versions: 1 2 3 4 5 6 7 8 9 10 11 12 13 14 15 16 17 18 19 20 21 22 23 24 25 26 27 28 29 30 31 32 33 34 35 36 37 38 39 40 41 42 43 44 45 46 47 48 49 50
000
ASUS43 KLMK 252102
RWRKY
KENTUCKY REGIONAL WEATHER ROUNDUP
NATIONAL WEATHER SERVICE LOUISVILLE KY
500 PM EDT TUE JUL 25 2017

NOTE "FAIR" INDICATES FEW OR NO CLOUDS BELOW 12,000 FEET
WITH NO SIGNIFICANT WEATHER AND/OR OBSTRUCTIONS TO VISIBILITY.

KYZ001>023-026-027-061>063-070>075-252200-
WESTERN AND SOUTH CENTRAL KENTUCKY

CITY           SKY/WX    TMP DP  RH WIND       PRES   REMARKS
PADUCAH        CLOUDY    76  73  91 S6        30.07F THUNDER
HENDERSON      SUNNY     88  73  61 NE7       30.10S HX  95
OWENSBORO      MOSUNNY   88  70  55 NE5       30.10S HX  93
HOPKINSVILLE   CLOUDY    87  75  68 NW5       30.08F HX  96
BOWLING GREEN  MOSUNNY   92  72  51 E7        30.08F HX  99
GLASGOW        NOT AVBL
$$

KYZ024-025-028>034-038-045-046-053-252200-
NORTH CENTRAL KENTUCKY

CITY           SKY/WX    TMP DP  RH WIND       PRES   REMARKS
LOUISVILLE/SDF MOSUNNY   87  64  46 NE6       30.12S
LOUISVILLE/LOU MOSUNNY   86  66  51 NE8       30.13S
FORT KNOX      MOSUNNY   84  68  58 NE5       30.12S
$$

KYZ035>037-039>044-047>052-055>060-089>105-252200-
NORTHEAST KENTUCKY

CITY           SKY/WX    TMP DP  RH WIND       PRES   REMARKS
LEXINGTON      MOSUNNY   84  63  49 NE9       30.15F
COVINGTON      SUNNY     81  61  50 E9        30.18R
FRANKFORT      PTSUNNY   83  63  50 E8        30.14S
$$

KYZ054-064>069-076>088-106>120-252200-
SOUTHEAST KENTUCKY

CITY           SKY/WX    TMP DP  RH WIND       PRES   REMARKS
JACKSON        MOSUNNY   82  66  58 CALM      30.16F
LONDON         MOSUNNY   84  61  45 VRB5      30.13F
SOMERSET       NOT AVBL
MIDDLESBORO    SUNNY     87  70  57 N8        30.12S HX  92
MONTICELLO     CLEAR     85  70  60 N20       30.14F
$$





USA.gov is the U.S. government's official web portal to all federal, state and local government web resources and services.